Weather History for KLHQ - February, 2013

Change the Weather History Date:

Sunday, February 10, 2013

  Actual Average Record
Temperature  
Mean Temperature 34 °F -  
Max Temperature 48 °F 33 °F 66 °F (1959)
Min Temperature 21 °F 13 °F -10 °F (1982)
Degree Days  
Heating Degree Days 30    
Moisture  
Dew Point 24 °F    
Average Humidity 59    
Maximum Humidity 82    
Minimum Humidity 38    
Precipitation  
Precipitation 0.03 in - - ()
Sea Level Pressure  
Sea Level Pressure 30.10 in    
Wind  
Wind Speed 5 mph (SSE)    
Max Wind Speed 16 mph    
Max Gust Speed 24 mph    
Visibility 10 miles    
Events Rain    
Averages and records for this station are not official NWS values.
T = Trace of Precipitation, MM = Missing Value Source: NWS Daily Summary

Daily Weather History Graph

Daily Weather History Graph

Search for Another Location

Airport or City:

Trip Planner

Search our weather history database for the weather conditions in past years. The results will help you decide how hot, cold, wet, or windy it might be!

Date:

Astronomy

Feb. 10, 2013 Rise Set
Actual Time 7:28 AM EST 6:01 PM EST
Civil Twilight 7:00 AM EST 6:29 PM EST
Nautical Twilight 6:29 AM EST 7:01 PM EST
Astronomical Twilight 5:57 AM EST 7:32 PM EST
Moon 7:18 AM EST (2/10) 6:50 PM EST (2/10)
Length of Visible Light 11h 28m
Length of Day
10h 32m
New Moon, 0% of the Moon is Illuminated
Feb 10
New Moon
Feb 17
First Quarter
Feb 25
Full
Mar 4
Last Quarter
Mar 11
New

Hourly Weather History & Observations

Time (EST) Temp. Windchill Dew Point Humidity Pressure Visibility Wind Dir Wind Speed Gust Speed Precip Events Conditions
12:53 AM 23.0 °F - 18.0 °F 81% 30.30 in 10.0 mi Calm Calm - N/A   Clear
1:53 AM 21.9 °F - 17.1 °F 82% 30.28 in 10.0 mi Calm Calm - N/A   Clear
2:53 AM 21.9 °F 17.2 °F 17.1 °F 82% 30.28 in 10.0 mi South 3.5 mph - N/A   Clear
3:53 AM 27.0 °F 23.0 °F 17.1 °F 66% 30.26 in 10.0 mi SSE 3.5 mph - N/A   Clear
4:53 AM 27.0 °F - 18.0 °F 69% 30.25 in 10.0 mi Calm Calm - N/A   Clear
5:53 AM 27.0 °F 23.0 °F 19.0 °F 72% 30.26 in 10.0 mi ESE 3.5 mph - N/A   Clear
6:53 AM 30.0 °F 23.2 °F 18.0 °F 61% 30.24 in 10.0 mi SE 6.9 mph - N/A   Clear
8:53 AM 30.9 °F 22.8 °F 19.0 °F 61% 30.23 in 10.0 mi SE 9.2 mph - N/A   Scattered Clouds
9:53 AM 34.0 °F 26.6 °F 19.0 °F 54% 30.20 in 10.0 mi SE 9.2 mph - N/A   Clear
10:53 AM 37.0 °F 31.0 °F 19.9 °F 50% 30.20 in 10.0 mi SE 8.1 mph - N/A   Mostly Cloudy
11:53 AM 39.0 °F 34.8 °F 21.9 °F 50% 30.18 in 10.0 mi SSE 5.8 mph - N/A   Overcast
12:53 PM 44.1 °F 39.0 °F 23.0 °F 43% 30.11 in 10.0 mi SE 9.2 mph - N/A   Scattered Clouds
1:53 PM 46.0 °F 42.5 °F 23.0 °F 40% 30.07 in 10.0 mi SE 6.9 mph - N/A   Overcast
2:53 PM 48.9 °F - 24.1 °F 38% 30.01 in 10.0 mi SE 9.2 mph - N/A   Overcast
3:53 PM 48.9 °F - 25.0 °F 39% 30.02 in 10.0 mi SSE 8.1 mph - N/A   Overcast
4:53 PM 48.9 °F - 25.0 °F 39% 30.01 in 10.0 mi South 6.9 mph - N/A   Overcast
5:53 PM 46.9 °F - 25.0 °F 42% 29.99 in 10.0 mi SSE 5.8 mph - N/A   Scattered Clouds
6:53 PM 48.0 °F - 25.0 °F 41% 29.96 in 10.0 mi SE 9.2 mph - N/A   Scattered Clouds
7:53 PM 48.0 °F - 34.0 °F 58% 29.94 in 7.0 mi South 12.7 mph - 0.02 in Rain Light Rain
8:53 PM 46.9 °F - 37.9 °F 71% 29.94 in 10.0 mi South 16.1 mph 23.0 mph 0.00 in   Overcast
9:53 PM 46.9 °F - 37.9 °F 71% 29.91 in 10.0 mi South 12.7 mph 20.7 mph N/A   Overcast
10:53 PM 46.9 °F - 39.0 °F 74% 29.88 in 10.0 mi South 16.1 mph 24.2 mph 0.01 in   Overcast
11:53 PM 46.9 °F - 39.0 °F 74% 29.86 in 10.0 mi South 16.1 mph 20.7 mph N/A   Overcast